Home   Weather   Newtown   Past weeks

Flag for United Kingdom Past Weather in Newtown, Wales, United Kingdom — Yesterday and Last 2 Weeks

Now
46 °F

Cool.


Feels Like: 43 °F
Forecast: 45 / 51 °F
Wind: 5 mph from Southwest

Location: Lake Vyrnwy

Current Time: Sep 30, 2016 at 4:18:03 AM

Latest Report: Sep 30, 2016 at 3:00 AM


Visibility: 22 mi

Pressure: 29.86 "Hg

Humidity: 95%

Dew Point: 44 °F

Location of NewtownLocation

Past Weather in Newtown — Graph

°F

Newtown Temperature Yesterday

Maximum temperature yesterday: 58 °F (at 12:00 AM)
Minimum temperature yesterday: 48 °F (at 11:00 PM)
Average temperature yesterday: 54 °F

High & Low Weather Summary for the Past Weeks

 TemperatureHumidityPressure
High72 °F (Sep 15, 1:00 PM)100% (Sep 15, 3:00 AM)30.25 "Hg (Sep 15, 3:00 AM)
Low45 °F (Sep 18, 7:00 AM)59% (Sep 22, 5:00 PM)29.68 "Hg (Sep 25, 2:00 AM)
Average54 °F90%30.05 "Hg
* Reported Sep 15 3:00 AM — Sep 30 3:00 AM, Newtown, Weather by CustomWeather, © 2016

Note: Actual official high and low records may vary slightly from our data, if they occured in-between our weather recording intervals... More about our weather records

Advertising

Newtown Weather History for the Previous 24 Hours

Scroll right to see more
 ConditionsComfort  
Time TempWeatherWind HumidityBarometerVisibility
3:00 AM
Fri, Sep 30
46 °FCool.5 mph95%29.86 "Hg22 mi
2:00 AM46 °FCool.8 mph95%29.88 "Hg25 mi
12:00 AM48 °FCool.9 mph93%29.90 "Hg28 mi
11:00 PM
Thu, Sep 29
48 °FCool.8 mph93%29.91 "Hg25 mi
10:00 PM49 °FCool.3 mph90%29.91 "Hg25 mi
9:00 PM49 °FCool.12 mph86%29.91 "Hg25 mi
8:00 PM49 °FCool.8 mph91%29.90 "Hg22 mi
7:00 PM51 °FCool.10 mph86%29.89 "Hg22 mi
6:00 PM51 °FCool.17 mph85%29.88 "Hg25 mi
5:00 PM53 °FCool.21 mph75%29.87 "Hg31 mi
4:00 PM55 °FCool.21 mph71%29.87 "Hg31 mi
3:00 PM54 °FCool.22 mph74%29.86 "Hg28 mi
2:00 PM56 °FCool.24 mph70%29.86 "Hg28 mi
1:00 PM56 °FCool.21 mph75%29.88 "Hg25 mi
12:00 PM56 °FCool.23 mph74%29.87 "Hg25 mi
8:00 AM52 °FCool.17 mph89%29.88 "Hg19 mi
7:00 AM52 °FCool.20 mph83%29.87 "Hg28 mi
6:00 AM54 °FCool.20 mph89%29.86 "Hg25 mi
5:00 AM56 °FCool.22 mph92%29.85 "Hg28 mi
4:00 AM57 °FCool.26 mph95%29.86 "Hg31 mi
Weather by CustomWeather, © 2016

See weather overviewHow to use our weather pages